Time,TemperatureF,DewpointF,PressureIn,WindDirection,WindDirectionDegrees,WindSpeedMPH,WindSpeedGustMPH,Humidity,HourlyPrecipIn,Conditions,Clouds,dailyrainin,SoftwareType,DateUTC
2013-07-21 00:02:00,54.1,46.0,29.78,SW,215,4.5,5.8,74,0.00,,,0.00,VWS V14.01,2013-07-21 07:02:00,
2013-07-21 00:07:00,54.1,46.4,29.78,WSW,251,5.8,5.8,75,0.00,,,0.00,VWS V14.01,2013-07-21 07:07:00,
2013-07-21 00:12:00,54.3,46.6,29.78,SW,220,2.7,7.6,75,0.00,,,0.00,VWS V14.01,2013-07-21 07:12:00,
2013-07-21 00:17:00,54.3,46.6,29.78,SW,235,3.6,3.6,75,0.00,,,0.00,VWS V14.01,2013-07-21 07:17:00,
2013-07-21 00:22:00,54.1,46.4,29.78,SSW,197,4.0,5.8,75,0.00,,,0.00,VWS V14.01,2013-07-21 07:22:00,
2013-07-21 00:27:00,54.1,46.8,29.78,South,190,2.7,4.9,76,0.00,,,0.00,VWS V14.01,2013-07-21 07:27:00,
2013-07-21 00:32:00,54.1,46.8,29.78,SW,227,3.6,5.4,76,0.00,,,0.00,VWS V14.01,2013-07-21 07:32:00,
2013-07-21 00:37:00,54.3,46.9,29.78,SW,214,6.3,6.3,76,0.00,,,0.00,VWS V14.01,2013-07-21 07:37:00,
2013-07-21 00:42:00,54.3,47.3,29.78,SW,228,4.0,5.8,77,0.00,,,0.00,VWS V14.01,2013-07-21 07:42:00,
2013-07-21 00:47:00,54.3,47.3,29.78,SW,225,3.1,6.3,77,0.00,,,0.00,VWS V14.01,2013-07-21 07:47:00,
2013-07-21 00:52:00,54.3,47.3,29.75,SW,229,2.7,5.8,77,0.00,,,0.00,VWS V14.01,2013-07-21 07:52:00,
2013-07-21 00:57:00,54.3,47.6,29.75,WSW,240,4.0,5.8,78,0.00,,,0.00,VWS V14.01,2013-07-21 07:57:00,
2013-07-21 01:02:00,54.5,47.8,29.75,South,189,3.6,5.8,78,0.00,,,0.00,VWS V14.01,2013-07-21 08:02:00,
2013-07-21 01:07:00,54.5,47.8,29.75,SSW,204,5.8,5.8,78,0.00,,,0.00,VWS V14.01,2013-07-21 08:07:00,
2013-07-21 01:12:00,54.5,48.1,29.75,SSW,205,7.6,8.7,79,0.00,,,0.00,VWS V14.01,2013-07-21 08:12:00,
2013-07-21 01:17:00,54.5,48.1,29.75,SSW,211,4.0,7.6,79,0.00,,,0.00,VWS V14.01,2013-07-21 08:17:00,
2013-07-21 01:22:00,54.5,48.1,29.75,SW,224,5.8,5.8,79,0.00,,,0.00,VWS V14.01,2013-07-21 08:22:00,
2013-07-21 01:27:00,54.5,48.1,29.75,SW,215,3.6,3.6,79,0.00,,,0.00,VWS V14.01,2013-07-21 08:27:00,
2013-07-21 01:32:00,54.5,48.5,29.75,South,173,4.0,6.3,80,0.00,,,0.00,VWS V14.01,2013-07-21 08:32:00,
2013-07-21 01:37:00,54.5,48.5,29.75,SSW,211,6.7,6.7,80,0.00,,,0.00,VWS V14.01,2013-07-21 08:37:00,
2013-07-21 01:42:00,54.5,48.5,29.75,SSW,213,3.6,4.5,80,0.00,,,0.00,VWS V14.01,2013-07-21 08:42:00,
2013-07-21 01:47:00,54.5,48.5,29.75,WSW,249,2.7,4.0,80,0.00,,,0.00,VWS V14.01,2013-07-21 08:47:00,
2013-07-21 01:52:00,54.5,48.5,29.75,SW,222,7.6,7.6,80,0.00,,,0.00,VWS V14.01,2013-07-21 08:52:00,
2013-07-21 01:57:00,54.5,48.5,29.75,SW,218,3.6,5.4,80,0.00,,,0.00,VWS V14.01,2013-07-21 08:57:00,
2013-07-21 02:02:00,54.5,48.8,29.75,SW,229,5.8,6.3,81,0.00,,,0.00,VWS V14.01,2013-07-21 09:02:00,
2013-07-21 02:07:00,54.5,48.8,29.75,WSW,240,4.0,4.9,81,0.00,,,0.00,VWS V14.01,2013-07-21 09:07:00,
2013-07-21 02:12:00,54.5,48.8,29.75,WSW,243,5.4,5.4,81,0.00,,,0.00,VWS V14.01,2013-07-21 09:12:00,
2013-07-21 02:17:00,54.7,49.0,29.75,SW,225,4.9,4.9,81,0.00,,,0.00,VWS V14.01,2013-07-21 09:17:00,
2013-07-21 02:22:00,54.7,49.0,29.75,SW,220,4.0,5.8,81,0.00,,,0.00,VWS V14.01,2013-07-21 09:22:00,
2013-07-21 02:27:00,54.7,49.0,29.75,SSW,204,3.1,4.0,81,0.00,,,0.00,VWS V14.01,2013-07-21 09:27:00,
2013-07-21 02:32:00,54.7,49.0,29.75,SSW,199,6.7,6.7,81,0.00,,,0.00,VWS V14.01,2013-07-21 09:32:00,
2013-07-21 02:37:00,54.7,49.0,29.75,SW,234,5.4,6.3,81,0.00,,,0.00,VWS V14.01,2013-07-21 09:37:00,
2013-07-21 02:42:00,54.7,49.0,29.75,SW,232,3.6,5.4,81,0.00,,,0.00,VWS V14.01,2013-07-21 09:42:00,
2013-07-21 02:47:00,54.7,49.3,29.75,SW,226,4.0,4.9,82,0.00,,,0.00,VWS V14.01,2013-07-21 09:47:00,
2013-07-21 02:52:00,54.7,49.3,29.75,WSW,240,4.0,4.9,82,0.00,,,0.00,VWS V14.01,2013-07-21 09:52:00,
2013-07-21 02:57:00,54.7,49.3,29.75,SW,217,6.3,6.3,82,0.00,,,0.00,VWS V14.01,2013-07-21 09:57:00,
2013-07-21 03:02:00,54.7,49.3,29.75,SW,217,5.8,5.8,82,0.00,,,0.00,VWS V14.01,2013-07-21 10:02:00,
2013-07-21 03:07:00,54.9,49.5,29.72,South,176,2.2,2.7,82,0.00,,,0.00,VWS V14.01,2013-07-21 10:07:00,
2013-07-21 03:12:00,54.9,49.5,29.72,SSW,203,4.0,5.8,82,0.00,,,0.00,VWS V14.01,2013-07-21 10:12:00,
2013-07-21 03:17:00,55.0,49.7,29.72,SSE,153,3.1,3.6,82,0.00,,,0.00,VWS V14.01,2013-07-21 10:17:00,
2013-07-21 03:22:00,55.0,49.7,29.72,SW,232,5.4,5.4,82,0.00,,,0.00,VWS V14.01,2013-07-21 10:22:00,
2013-07-21 03:27:00,55.0,49.7,29.72,SW,231,5.4,5.4,82,0.00,,,0.00,VWS V14.01,2013-07-21 10:27:00,
2013-07-21 03:32:00,55.0,49.7,29.72,SW,220,3.1,5.4,82,0.00,,,0.00,VWS V14.01,2013-07-21 10:32:00,
2013-07-21 03:37:00,55.0,49.7,29.72,SW,225,3.1,3.1,82,0.00,,,0.00,VWS V14.01,2013-07-21 10:37:00,
2013-07-21 03:42:00,55.0,49.7,29.72,SSW,209,3.1,4.0,82,0.00,,,0.00,VWS V14.01,2013-07-21 10:42:00,
2013-07-21 03:47:00,55.0,49.7,29.72,SSW,209,3.1,6.3,82,0.00,,,0.00,VWS V14.01,2013-07-21 10:47:00,
2013-07-21 03:52:00,55.2,49.8,29.72,SSW,208,3.6,4.0,82,0.00,,,0.00,VWS V14.01,2013-07-21 10:52:00,
2013-07-21 03:57:00,55.2,49.8,29.72,SSW,193,4.9,5.8,82,0.00,,,0.00,VWS V14.01,2013-07-21 10:57:00,
2013-07-21 04:02:00,55.0,49.7,29.72,SW,228,4.0,6.3,82,0.00,,,0.00,VWS V14.01,2013-07-21 11:02:00,
2013-07-21 04:07:00,55.0,50.0,29.72,SW,229,5.8,6.3,83,0.00,,,0.00,VWS V14.01,2013-07-21 11:07:00,
2013-07-21 04:12:00,55.0,50.0,29.72,SSW,207,5.4,5.4,83,0.00,,,0.00,VWS V14.01,2013-07-21 11:12:00,
2013-07-21 04:17:00,55.2,50.2,29.72,SW,220,2.7,3.1,83,0.00,,,0.00,VWS V14.01,2013-07-21 11:17:00,
2013-07-21 04:22:00,55.2,50.2,29.72,South,188,4.0,4.0,83,0.00,,,0.00,VWS V14.01,2013-07-21 11:22:00,
2013-07-21 04:27:00,55.2,50.2,29.72,SSW,209,5.4,5.4,83,0.00,,,0.00,VWS V14.01,2013-07-21 11:27:00,
2013-07-21 04:32:00,55.2,50.2,29.72,SW,231,2.7,3.6,83,0.00,,,0.00,VWS V14.01,2013-07-21 11:32:00,
2013-07-21 04:37:00,55.4,50.0,29.72,SW,220,4.9,4.9,82,0.00,,,0.00,VWS V14.01,2013-07-21 11:37:00,
2013-07-21 04:42:00,55.2,50.2,29.72,SW,222,3.1,4.9,83,0.00,,,0.00,VWS V14.01,2013-07-21 11:42:00,
2013-07-21 04:47:00,55.2,50.2,29.72,SW,217,0.0,3.1,83,0.00,,,0.00,VWS V14.01,2013-07-21 11:47:00,
2013-07-21 04:52:00,55.2,50.2,29.72,SW,232,2.7,3.1,83,0.00,,,0.00,VWS V14.01,2013-07-21 11:52:00,
2013-07-21 04:57:00,55.2,50.2,29.72,WSW,253,3.1,3.6,83,0.00,,,0.00,VWS V14.01,2013-07-21 11:57:00,
2013-07-21 05:02:00,55.2,50.2,29.72,South,191,2.7,3.1,83,0.00,,,0.00,VWS V14.01,2013-07-21 12:02:00,
2013-07-21 05:07:00,55.2,50.2,29.72,SSW,207,0.0,2.7,83,0.00,,,0.00,VWS V14.01,2013-07-21 12:07:00,
2013-07-21 05:12:00,55.2,50.2,29.72,SSW,208,3.6,3.6,83,0.00,,,0.00,VWS V14.01,2013-07-21 12:12:00,
2013-07-21 05:17:00,55.2,50.2,29.72,SSW,206,3.1,4.0,83,0.00,,,0.00,VWS V14.01,2013-07-21 12:17:00,
2013-07-21 05:22:00,55.4,50.3,29.72,SSW,208,2.7,4.0,83,0.00,,,0.00,VWS V14.01,2013-07-21 12:22:00,
2013-07-21 05:27:00,55.4,50.3,29.72,SW,223,3.6,3.6,83,0.00,,,0.00,VWS V14.01,2013-07-21 12:27:00,
2013-07-21 05:32:00,55.4,50.3,29.72,South,174,2.7,6.3,83,0.00,,,0.00,VWS V14.01,2013-07-21 12:32:00,
2013-07-21 05:37:00,55.4,50.0,29.75,SSW,195,3.1,3.1,82,0.00,,,0.00,VWS V14.01,2013-07-21 12:37:00,
2013-07-21 05:42:00,55.4,50.0,29.75,SSW,212,3.1,4.0,82,0.00,,,0.00,VWS V14.01,2013-07-21 12:42:00,
2013-07-21 05:47:00,55.2,50.2,29.75,South,190,4.0,5.4,83,0.00,,,0.00,VWS V14.01,2013-07-21 12:47:00,
2013-07-21 05:52:00,55.2,50.2,29.75,South,185,3.1,3.1,83,0.00,,,0.00,VWS V14.01,2013-07-21 12:52:00,
2013-07-21 05:57:00,55.2,50.2,29.75,SE,139,2.2,4.0,83,0.00,,,0.00,VWS V14.01,2013-07-21 12:57:00,
2013-07-21 06:02:00,55.2,50.2,29.75,SSW,194,0.0,4.0,83,0.00,,,0.00,VWS V14.01,2013-07-21 13:02:00,
2013-07-21 06:07:00,55.2,50.2,29.75,SW,228,3.1,3.1,83,0.00,,,0.00,VWS V14.01,2013-07-21 13:07:00,
2013-07-21 06:12:00,55.4,50.3,29.75,SSW,206,3.1,3.1,83,0.00,,,0.00,VWS V14.01,2013-07-21 13:12:00,
2013-07-21 06:17:00,55.4,50.3,29.75,SW,228,4.9,4.9,83,0.00,,,0.00,VWS V14.01,2013-07-21 13:17:00,
2013-07-21 06:22:00,55.4,50.3,29.75,SSW,203,2.7,5.4,83,0.00,,,0.00,VWS V14.01,2013-07-21 13:22:00,
2013-07-21 06:27:00,55.4,50.3,29.75,SW,227,3.1,3.1,83,0.00,,,0.00,VWS V14.01,2013-07-21 13:27:00,
2013-07-21 06:32:00,55.4,50.3,29.75,SSW,211,4.0,5.4,83,0.00,,,0.00,VWS V14.01,2013-07-21 13:32:00,
2013-07-21 06:37:00,55.2,50.2,29.75,South,187,4.9,5.8,83,0.00,,,0.00,VWS V14.01,2013-07-21 13:37:00,
2013-07-21 06:43:00,55.0,50.0,29.75,SSW,212,3.6,7.2,83,0.00,,,0.00,VWS V14.01,2013-07-21 13:43:00,
2013-07-21 06:48:00,55.0,50.0,29.75,SW,224,4.0,5.4,83,0.00,,,0.00,VWS V14.01,2013-07-21 13:48:00,
2013-07-21 06:53:00,55.0,50.0,29.78,SW,217,4.0,5.4,83,0.00,,,0.00,VWS V14.01,2013-07-21 13:53:00,
2013-07-21 06:58:00,55.0,50.0,29.78,WSW,253,5.8,5.8,83,0.00,,,0.00,VWS V14.01,2013-07-21 13:58:00,
2013-07-21 07:03:00,55.0,50.0,29.78,SW,224,3.1,3.6,83,0.00,,,0.00,VWS V14.01,2013-07-21 14:03:00,
2013-07-21 07:08:00,55.0,50.0,29.78,SW,215,5.8,7.6,83,0.00,,,0.00,VWS V14.01,2013-07-21 14:08:00,
2013-07-21 07:13:00,54.9,49.8,29.78,SW,219,4.9,4.9,83,0.00,,,0.00,VWS V14.01,2013-07-21 14:13:00,
2013-07-21 07:18:00,54.9,49.8,29.78,SW,215,4.9,5.8,83,0.00,,,0.00,VWS V14.01,2013-07-21 14:18:00,
2013-07-21 07:23:00,54.9,49.8,29.78,SSW,209,3.1,5.8,83,0.00,,,0.00,VWS V14.01,2013-07-21 14:23:00,
2013-07-21 07:28:00,54.7,49.6,29.78,SSW,208,2.7,4.0,83,0.00,,,0.00,VWS V14.01,2013-07-21 14:28:00,
2013-07-21 07:33:00,54.9,49.8,29.78,SW,218,5.8,6.3,83,0.00,,,0.00,VWS V14.01,2013-07-21 14:33:00,
2013-07-21 07:38:00,54.9,49.8,29.78,SW,219,4.9,5.4,83,0.00,,,0.00,VWS V14.01,2013-07-21 14:38:00,
2013-07-21 07:43:00,54.9,49.8,29.78,SSW,211,5.4,5.4,83,0.00,,,0.00,VWS V14.01,2013-07-21 14:43:00,
2013-07-21 07:48:00,54.9,49.8,29.78,SSW,200,4.0,4.5,83,0.00,,,0.00,VWS V14.01,2013-07-21 14:48:00,
2013-07-21 07:53:00,54.9,49.8,29.78,SSW,210,3.6,3.6,83,0.00,,,0.00,VWS V14.01,2013-07-21 14:53:00,
2013-07-21 07:58:00,54.9,49.8,29.78,SW,221,4.9,5.4,83,0.00,,,0.00,VWS V14.01,2013-07-21 14:58:00,
2013-07-21 08:03:00,54.9,49.8,29.78,SW,224,5.4,6.3,83,0.00,,,0.00,VWS V14.01,2013-07-21 15:03:00,
2013-07-21 08:08:00,54.9,49.8,29.78,SSW,195,5.4,5.8,83,0.00,,,0.00,VWS V14.01,2013-07-21 15:08:00,
2013-07-21 08:13:00,54.9,49.8,29.78,SW,228,5.4,5.4,83,0.00,,,0.00,VWS V14.01,2013-07-21 15:13:00,
2013-07-21 08:18:00,54.9,49.8,29.78,SW,231,5.4,6.3,83,0.00,,,0.00,VWS V14.01,2013-07-21 15:18:00,
2013-07-21 08:23:00,55.0,50.3,29.78,SW,227,4.0,5.8,84,0.00,,,0.00,VWS V14.01,2013-07-21 15:23:00,
2013-07-21 08:28:00,55.2,50.5,29.78,SSW,208,3.6,5.8,84,0.00,,,0.00,VWS V14.01,2013-07-21 15:28:00,
2013-07-21 08:33:00,55.2,50.5,29.78,SW,223,3.1,4.9,84,0.00,,,0.00,VWS V14.01,2013-07-21 15:33:00,
2013-07-21 08:38:00,55.4,50.3,29.81,SW,219,3.1,5.8,83,0.00,,,0.00,VWS V14.01,2013-07-21 15:38:00,
2013-07-21 08:43:00,55.6,50.8,29.81,SSW,209,4.0,5.4,84,0.00,,,0.00,VWS V14.01,2013-07-21 15:43:00,
2013-07-21 08:48:00,55.6,50.8,29.81,SSW,195,5.4,5.8,84,0.00,,,0.00,VWS V14.01,2013-07-21 15:48:00,
2013-07-21 08:53:00,55.6,50.8,29.81,SW,226,4.9,8.1,84,0.00,,,0.00,VWS V14.01,2013-07-21 15:53:00,
2013-07-21 08:58:00,55.6,50.8,29.81,SW,229,5.4,5.8,84,0.00,,,0.00,VWS V14.01,2013-07-21 15:58:00,
2013-07-21 09:03:00,55.8,51.0,29.81,SSW,212,7.6,7.6,84,0.00,,,0.00,VWS V14.01,2013-07-21 16:03:00,
2013-07-21 09:08:00,55.9,51.2,29.81,West,268,4.0,7.6,84,0.00,,,0.00,VWS V14.01,2013-07-21 16:08:00,
2013-07-21 09:13:00,56.1,51.4,29.81,SSW,200,5.8,7.6,84,0.00,,,0.00,VWS V14.01,2013-07-21 16:13:00,
2013-07-21 09:18:00,56.1,51.4,29.81,SSW,200,6.3,6.3,84,0.00,,,0.00,VWS V14.01,2013-07-21 16:18:00,
2013-07-21 09:23:00,56.3,51.5,29.81,SSW,203,3.1,5.4,84,0.00,,,0.00,VWS V14.01,2013-07-21 16:23:00,
2013-07-21 09:28:00,56.3,51.5,29.81,SSW,205,2.7,5.8,84,0.00,,,0.00,VWS V14.01,2013-07-21 16:28:00,
2013-07-21 09:33:00,56.5,51.7,29.81,SSW,202,4.0,5.8,84,0.00,,,0.00,VWS V14.01,2013-07-21 16:33:00,
2013-07-21 09:38:00,56.5,51.7,29.81,South,183,4.0,4.0,84,0.00,,,0.00,VWS V14.01,2013-07-21 16:38:00,
2013-07-21 09:43:00,56.5,51.4,29.81,SSW,212,4.9,6.3,83,0.00,,,0.00,VWS V14.01,2013-07-21 16:43:00,
2013-07-21 09:48:00,56.7,51.6,29.81,SSW,192,4.0,4.0,83,0.00,,,0.00,VWS V14.01,2013-07-21 16:48:00,
2013-07-21 09:53:00,56.7,51.6,29.81,SSW,213,2.7,3.6,83,0.00,,,0.00,VWS V14.01,2013-07-21 16:53:00,
2013-07-21 09:58:00,56.8,51.7,29.81,South,187,2.7,4.9,83,0.00,,,0.00,VWS V14.01,2013-07-21 16:58:00,
2013-07-21 10:03:00,57.0,51.6,29.81,SW,219,3.6,3.6,82,0.00,,,0.00,VWS V14.01,2013-07-21 17:03:00,
2013-07-21 10:08:00,57.0,51.6,29.81,SSW,209,7.2,7.2,82,0.00,,,0.00,VWS V14.01,2013-07-21 17:08:00,
2013-07-21 10:13:00,57.0,50.9,29.81,West,270,5.8,5.8,80,0.00,,,0.00,VWS V14.01,2013-07-21 17:13:00,
2013-07-21 10:18:00,57.2,50.8,29.81,WSW,237,4.0,4.0,79,0.00,,,0.00,VWS V14.01,2013-07-21 17:18:00,
2013-07-21 10:23:00,57.2,50.4,29.81,SW,217,5.4,5.4,78,0.00,,,0.00,VWS V14.01,2013-07-21 17:23:00,
2013-07-21 10:28:00,57.0,49.5,29.81,SW,215,5.8,5.8,76,0.00,,,0.00,VWS V14.01,2013-07-21 17:28:00,
2013-07-21 10:33:00,57.0,48.8,29.81,SSW,193,4.0,4.0,74,0.00,,,0.00,VWS V14.01,2013-07-21 17:33:00,
2013-07-21 10:38:00,57.0,48.1,29.81,SSW,198,2.2,5.8,72,0.00,,,0.00,VWS V14.01,2013-07-21 17:38:00,
2013-07-21 10:43:00,57.0,47.7,29.81,SW,235,6.3,6.3,71,0.00,,,0.00,VWS V14.01,2013-07-21 17:43:00,
2013-07-21 10:48:00,57.0,47.0,29.81,SSW,209,2.7,4.9,69,0.00,,,0.00,VWS V14.01,2013-07-21 17:48:00,
2013-07-21 10:53:00,56.8,45.2,29.81,SSW,202,5.8,5.8,65,0.00,,,0.00,VWS V14.01,2013-07-21 17:53:00,
2013-07-21 10:58:00,56.7,43.0,29.81,SW,222,3.1,3.1,60,0.00,,,0.00,VWS V14.01,2013-07-21 17:58:00,
2013-07-21 11:03:00,56.7,41.6,29.81,SW,224,3.6,5.4,57,0.00,,,0.00,VWS V14.01,2013-07-21 18:03:00,
2013-07-21 11:08:00,56.5,40.0,29.81,SSW,202,5.8,7.6,54,0.00,,,0.00,VWS V14.01,2013-07-21 18:08:00,
2013-07-21 11:13:00,56.5,39.1,29.81,SW,224,5.4,6.3,52,0.00,,,0.00,VWS V14.01,2013-07-21 18:13:00,
2013-07-21 11:18:00,56.5,38.6,29.81,South,190,2.2,3.1,51,0.00,,,0.00,VWS V14.01,2013-07-21 18:18:00,
2013-07-21 11:23:00,56.7,38.2,29.81,SSW,194,3.1,6.3,50,0.00,,,0.00,VWS V14.01,2013-07-21 18:23:00,
2013-07-21 11:28:00,56.8,37.9,29.81,SW,215,4.0,6.3,49,0.00,,,0.00,VWS V14.01,2013-07-21 18:28:00,
2013-07-21 11:33:00,56.8,37.4,29.81,SW,218,6.3,6.3,48,0.00,,,0.00,VWS V14.01,2013-07-21 18:33:00,
2013-07-21 11:38:00,56.8,36.8,29.81,WSW,243,8.3,8.3,47,0.00,,,0.00,VWS V14.01,2013-07-21 18:38:00,
2013-07-21 11:43:00,56.8,36.3,29.81,SW,234,5.4,7.6,46,0.00,,,0.00,VWS V14.01,2013-07-21 18:43:00,
2013-07-21 11:48:00,56.8,36.3,29.81,SSW,195,5.4,6.3,46,0.00,,,0.00,VWS V14.01,2013-07-21 18:48:00,
2013-07-21 11:53:00,57.0,35.9,29.81,SW,231,7.6,7.6,45,0.00,,,0.00,VWS V14.01,2013-07-21 18:53:00,
2013-07-21 11:58:00,57.2,35.5,29.81,WSW,247,7.6,7.6,44,0.00,,,0.00,VWS V14.01,2013-07-21 18:58:00,
2013-07-21 12:03:00,57.0,34.8,29.81,WSW,238,5.4,5.4,43,0.00,,,0.00,VWS V14.01,2013-07-21 19:03:00,
2013-07-21 12:08:00,57.2,34.9,29.81,SW,228,6.3,6.3,43,0.00,,,0.00,VWS V14.01,2013-07-21 19:08:00,
2013-07-21 12:13:00,57.2,34.9,29.81,SSW,211,6.3,7.6,43,0.00,,,0.00,VWS V14.01,2013-07-21 19:13:00,
2013-07-21 12:18:00,57.4,35.1,29.81,SW,222,6.3,7.6,43,0.00,,,0.00,VWS V14.01,2013-07-21 19:18:00,
2013-07-21 12:23:00,57.7,34.8,29.81,SW,220,3.6,6.3,42,0.00,,,0.00,VWS V14.01,2013-07-21 19:23:00,
2013-07-21 12:28:00,57.9,34.4,29.81,WSW,247,4.0,5.8,41,0.00,,,0.00,VWS V14.01,2013-07-21 19:28:00,
2013-07-21 12:33:00,58.1,33.9,29.81,SSW,204,5.8,8.1,40,0.00,,,0.00,VWS V14.01,2013-07-21 19:33:00,
2013-07-21 12:39:00,58.3,32.8,29.81,West,279,4.0,6.3,38,0.00,,,0.00,VWS V14.01,2013-07-21 19:39:00,
2013-07-21 12:44:00,58.5,33.0,29.81,WSW,243,6.3,7.2,38,0.00,,,0.00,VWS V14.01,2013-07-21 19:44:00,
2013-07-21 12:49:00,58.5,33.0,29.81,SSW,208,7.6,7.6,38,0.00,,,0.00,VWS V14.01,2013-07-21 19:49:00,
2013-07-21 12:54:00,58.8,33.3,29.81,SW,226,5.8,5.8,38,0.00,,,0.00,VWS V14.01,2013-07-21 19:54:00,
2013-07-21 12:59:00,59.0,32.1,29.81,SSW,211,6.3,6.3,36,0.00,,,0.00,VWS V14.01,2013-07-21 19:59:00,
2013-07-21 13:04:00,59.4,32.4,29.81,SW,216,2.7,4.9,36,0.00,,,0.00,VWS V14.01,2013-07-21 20:04:00,
2013-07-21 13:09:00,59.7,32.0,29.81,SW,226,3.6,5.4,35,0.00,,,0.00,VWS V14.01,2013-07-21 20:09:00,
2013-07-21 13:14:00,60.1,32.4,29.81,South,189,4.0,4.0,35,0.00,,,0.00,VWS V14.01,2013-07-21 20:14:00,
2013-07-21 13:19:00,60.3,31.8,29.81,SW,236,7.2,7.2,34,0.00,,,0.00,VWS V14.01,2013-07-21 20:19:00,
2013-07-21 13:24:00,60.4,32.0,29.81,East,96,5.8,5.8,34,0.00,,,0.00,VWS V14.01,2013-07-21 20:24:00,
2013-07-21 13:29:00,61.0,30.9,29.81,SSW,203,4.0,4.0,32,0.00,,,0.00,VWS V14.01,2013-07-21 20:29:00,
2013-07-21 13:34:00,60.8,30.0,29.81,SSW,196,5.8,6.3,31,0.00,,,0.00,VWS V14.01,2013-07-21 20:34:00,
2013-07-21 13:39:00,61.0,30.2,29.81,SW,234,5.4,5.4,31,0.00,,,0.00,VWS V14.01,2013-07-21 20:39:00,
2013-07-21 13:44:00,61.2,29.5,29.81,SSW,203,3.6,5.8,30,0.00,,,0.00,VWS V14.01,2013-07-21 20:44:00,
2013-07-21 13:49:00,61.0,28.5,29.81,WSW,253,2.7,5.8,29,0.00,,,0.00,VWS V14.01,2013-07-21 20:49:00,
2013-07-21 13:54:00,61.5,30.6,29.81,South,175,2.7,2.7,31,0.00,,,0.00,VWS V14.01,2013-07-21 20:54:00,
2013-07-21 13:59:00,62.1,29.5,29.81,West,262,5.8,5.8,29,0.00,,,0.00,VWS V14.01,2013-07-21 20:59:00,
2013-07-21 14:04:00,62.6,28.2,29.81,WSW,257,5.8,5.8,27,0.00,,,0.00,VWS V14.01,2013-07-21 21:04:00,
2013-07-21 14:09:00,62.8,26.5,29.81,West,262,5.4,5.8,25,0.00,,,0.00,VWS V14.01,2013-07-21 21:09:00,
2013-07-21 14:14:00,62.6,27.3,29.81,SSW,208,5.8,5.8,26,0.00,,,0.00,VWS V14.01,2013-07-21 21:14:00,
2013-07-21 14:19:00,63.0,27.6,29.78,WNW,289,5.4,6.3,26,0.00,,,0.00,VWS V14.01,2013-07-21 21:19:00,
2013-07-21 14:24:00,63.3,27.9,29.78,SSW,212,3.6,4.0,26,0.00,,,0.00,VWS V14.01,2013-07-21 21:24:00,
2013-07-21 14:29:00,63.3,26.9,29.78,SW,225,5.4,5.4,25,0.00,,,0.00,VWS V14.01,2013-07-21 21:29:00,
2013-07-21 14:34:00,63.5,27.1,29.78,SSW,205,5.4,6.3,25,0.00,,,0.00,VWS V14.01,2013-07-21 21:34:00,
2013-07-21 14:39:00,63.1,25.8,29.78,WSW,246,6.3,6.3,24,0.00,,,0.00,VWS V14.01,2013-07-21 21:39:00,
2013-07-21 14:44:00,63.0,25.6,29.78,SSW,205,2.7,3.6,24,0.00,,,0.00,VWS V14.01,2013-07-21 21:44:00,
2013-07-21 14:49:00,63.0,26.6,29.78,SW,226,5.4,5.8,25,0.00,,,0.00,VWS V14.01,2013-07-21 21:49:00,
2013-07-21 14:54:00,63.1,26.8,29.78,SSW,212,5.4,6.3,25,0.00,,,0.00,VWS V14.01,2013-07-21 21:54:00,
2013-07-21 14:59:00,63.0,25.6,29.78,SSW,208,3.1,6.3,24,0.00,,,0.00,VWS V14.01,2013-07-21 21:59:00,
2013-07-21 15:04:00,63.0,26.6,29.78,SW,230,5.8,6.3,25,0.00,,,0.00,VWS V14.01,2013-07-21 22:04:00,
2013-07-21 15:09:00,63.0,26.6,29.78,SSW,212,8.1,8.1,25,0.00,,,0.00,VWS V14.01,2013-07-21 22:09:00,
2013-07-21 15:14:00,63.0,26.6,29.78,WSW,241,5.4,5.4,25,0.00,,,0.00,VWS V14.01,2013-07-21 22:14:00,
2013-07-21 15:19:00,62.8,26.5,29.78,WSW,248,6.3,6.3,25,0.00,,,0.00,VWS V14.01,2013-07-21 22:19:00,
2013-07-21 15:24:00,62.6,26.3,29.78,SSW,213,7.2,7.2,25,0.00,,,0.00,VWS V14.01,2013-07-21 22:24:00,
2013-07-21 15:29:00,63.0,26.6,29.78,SW,223,5.4,5.8,25,0.00,,,0.00,VWS V14.01,2013-07-21 22:29:00,
2013-07-21 15:34:00,62.8,26.5,29.78,South,180,4.0,5.4,25,0.00,,,0.00,VWS V14.01,2013-07-21 22:34:00,
2013-07-21 15:39:00,63.0,26.6,29.78,South,183,4.0,5.8,25,0.00,,,0.00,VWS V14.01,2013-07-21 22:39:00,
2013-07-21 15:44:00,63.0,26.6,29.78,South,177,6.3,6.3,25,0.00,,,0.00,VWS V14.01,2013-07-21 22:44:00,
2013-07-21 15:50:00,63.0,25.6,29.78,SW,222,6.3,6.3,24,0.00,,,0.00,VWS V14.01,2013-07-21 22:50:00,
2013-07-21 15:55:00,63.1,25.8,29.78,SSW,210,4.0,4.0,24,0.00,,,0.00,VWS V14.01,2013-07-21 22:55:00,
2013-07-21 16:00:00,63.3,25.9,29.78,South,191,5.4,5.8,24,0.00,,,0.00,VWS V14.01,2013-07-21 23:00:00,
2013-07-21 16:05:00,63.5,26.1,29.78,SSW,206,5.8,7.6,24,0.00,,,0.00,VWS V14.01,2013-07-21 23:05:00,
2013-07-21 16:10:00,63.1,25.8,29.78,SSW,203,5.8,7.6,24,0.00,,,0.00,VWS V14.01,2013-07-21 23:10:00,
2013-07-21 16:15:00,62.8,25.5,29.78,SW,226,4.0,4.0,24,0.00,,,0.00,VWS V14.01,2013-07-21 23:15:00,
2013-07-21 16:20:00,63.0,25.6,29.78,SW,222,6.3,6.3,24,0.00,,,0.00,VWS V14.01,2013-07-21 23:20:00,
2013-07-21 16:25:00,62.8,25.5,29.78,WSW,237,5.4,6.3,24,0.00,,,0.00,VWS V14.01,2013-07-21 23:25:00,
2013-07-21 16:30:00,62.8,25.5,29.78,SSW,211,5.8,6.3,24,0.00,,,0.00,VWS V14.01,2013-07-21 23:30:00,
2013-07-21 16:35:00,62.2,26.0,29.78,WSW,242,5.4,5.4,25,0.00,,,0.00,VWS V14.01,2013-07-21 23:35:00,
2013-07-21 16:40:00,61.9,25.7,29.78,SSW,210,5.8,5.8,25,0.00,,,0.00,VWS V14.01,2013-07-21 23:40:00,
2013-07-21 16:45:00,61.9,26.6,29.78,SW,231,3.1,4.0,26,0.00,,,0.00,VWS V14.01,2013-07-21 23:45:00,
2013-07-21 16:50:00,61.9,25.7,29.75,WSW,241,6.3,6.3,25,0.00,,,0.00,VWS V14.01,2013-07-21 23:50:00,
2013-07-21 16:55:00,61.7,25.5,29.75,WSW,258,6.3,6.3,25,0.00,,,0.00,VWS V14.01,2013-07-21 23:55:00,
2013-07-21 17:00:00,61.7,26.5,29.75,SSW,195,5.8,6.3,26,0.00,,,0.00,VWS V14.01,2013-07-22 00:00:00,
2013-07-21 17:05:00,61.5,26.3,29.78,WSW,238,5.4,6.3,26,0.00,,,0.00,VWS V14.01,2013-07-22 00:05:00,
2013-07-21 17:10:00,61.2,26.9,29.78,SSW,204,2.2,6.3,27,0.00,,,0.00,VWS V14.01,2013-07-22 00:10:00,
2013-07-21 17:15:00,61.0,26.8,29.78,South,179,4.0,5.4,27,0.00,,,0.00,VWS V14.01,2013-07-22 00:15:00,
2013-07-21 17:20:00,60.8,26.6,29.78,SW,225,4.0,4.9,27,0.00,,,0.00,VWS V14.01,2013-07-22 00:20:00,
2013-07-21 17:25:00,60.1,27.7,29.78,SSW,203,4.0,5.4,29,0.00,,,0.00,VWS V14.01,2013-07-22 00:25:00,
2013-07-21 17:30:00,59.7,29.1,29.78,SW,214,5.8,8.1,31,0.00,,,0.00,VWS V14.01,2013-07-22 00:30:00,
2013-07-21 17:35:00,59.0,30.7,29.78,SW,224,3.1,5.8,34,0.00,,,0.00,VWS V14.01,2013-07-22 00:35:00,
2013-07-21 17:40:00,58.6,31.1,29.78,SW,217,4.9,6.3,35,0.00,,,0.00,VWS V14.01,2013-07-22 00:40:00,
2013-07-21 17:45:00,58.6,31.8,29.78,SW,229,3.6,7.2,36,0.00,,,0.00,VWS V14.01,2013-07-22 00:45:00,
2013-07-21 17:50:00,58.5,31.6,29.78,SW,219,6.3,6.3,36,0.00,,,0.00,VWS V14.01,2013-07-22 00:50:00,
2013-07-21 17:55:00,58.1,31.3,29.78,SW,216,4.9,8.1,36,0.00,,,0.00,VWS V14.01,2013-07-22 00:55:00,
2013-07-21 18:00:00,58.1,32.0,29.78,SSW,204,6.3,6.3,37,0.00,,,0.00,VWS V14.01,2013-07-22 01:00:00,
2013-07-21 18:06:00,58.1,32.0,29.78,WSW,238,4.0,5.8,37,0.00,,,0.00,VWS V14.01,2013-07-22 01:06:00,
2013-07-21 18:10:00,58.1,32.0,29.78,WSW,238,4.9,4.9,37,0.00,,,0.00,VWS V14.01,2013-07-22 01:10:00,
2013-07-21 18:16:00,57.9,31.8,29.78,SSW,200,8.3,8.7,37,0.00,,,0.00,VWS V14.01,2013-07-22 01:16:00,
2013-07-21 18:21:00,57.6,31.5,29.78,SW,226,6.3,7.6,37,0.00,,,0.00,VWS V14.01,2013-07-22 01:21:00,
2013-07-21 18:26:00,57.2,32.5,29.78,SW,221,6.3,7.6,39,0.00,,,0.00,VWS V14.01,2013-07-22 01:26:00,
2013-07-21 18:31:00,57.0,33.0,29.78,WSW,249,6.3,9.6,40,0.00,,,0.00,VWS V14.01,2013-07-22 01:31:00,
2013-07-21 18:36:00,56.8,34.0,29.78,SW,230,5.8,8.3,42,0.00,,,0.00,VWS V14.01,2013-07-22 01:36:00,
2013-07-21 18:41:00,56.7,34.4,29.78,SSW,209,8.3,8.3,43,0.00,,,0.00,VWS V14.01,2013-07-22 01:41:00,
2013-07-21 18:46:00,56.5,34.3,29.78,SW,217,5.8,8.1,43,0.00,,,0.00,VWS V14.01,2013-07-22 01:46:00,
2013-07-21 18:51:00,56.3,35.2,29.78,SW,229,7.6,8.1,45,0.00,,,0.00,VWS V14.01,2013-07-22 01:51:00,
2013-07-21 18:56:00,56.1,35.6,29.78,SW,233,5.4,5.8,46,0.00,,,0.00,VWS V14.01,2013-07-22 01:56:00,
2013-07-21 19:01:00,55.9,36.0,29.78,SW,221,5.4,8.3,47,0.00,,,0.00,VWS V14.01,2013-07-22 02:01:00,
2013-07-21 19:06:00,55.9,36.5,29.78,SW,225,6.3,6.3,48,0.00,,,0.00,VWS V14.01,2013-07-22 02:06:00,
2013-07-21 19:11:00,55.9,37.1,29.78,SSW,193,8.7,8.7,49,0.00,,,0.00,VWS V14.01,2013-07-22 02:11:00,
2013-07-21 19:16:00,55.9,37.6,29.78,WSW,251,5.8,7.2,50,0.00,,,0.00,VWS V14.01,2013-07-22 02:16:00,
2013-07-21 19:21:00,55.8,37.4,29.78,WSW,237,5.8,7.6,50,0.00,,,0.00,VWS V14.01,2013-07-22 02:21:00,
2013-07-21 19:26:00,55.9,38.1,29.78,SSW,204,8.3,8.3,51,0.00,,,0.00,VWS V14.01,2013-07-22 02:26:00,
2013-07-21 19:31:00,55.6,38.2,29.78,SW,236,5.4,6.3,52,0.00,,,0.00,VWS V14.01,2013-07-22 02:31:00,
2013-07-21 19:36:00,55.6,38.2,29.78,SW,224,7.2,7.2,52,0.00,,,0.00,VWS V14.01,2013-07-22 02:36:00,
2013-07-21 19:41:00,55.4,38.6,29.78,SSW,207,5.4,8.3,53,0.00,,,0.00,VWS V14.01,2013-07-22 02:41:00,
2013-07-21 19:46:00,55.4,39.0,29.78,SW,228,5.8,7.6,54,0.00,,,0.00,VWS V14.01,2013-07-22 02:46:00,
2013-07-21 19:51:00,55.4,39.5,29.78,SSW,208,6.3,8.1,55,0.00,,,0.00,VWS V14.01,2013-07-22 02:51:00,
2013-07-21 19:56:00,55.2,39.8,29.78,SSW,196,5.8,6.3,56,0.00,,,0.00,VWS V14.01,2013-07-22 02:56:00,
2013-07-21 20:01:00,55.2,40.3,29.78,WSW,256,5.4,5.8,57,0.00,,,0.00,VWS V14.01,2013-07-22 03:01:00,
2013-07-21 20:06:00,55.2,41.2,29.81,SW,230,5.8,6.3,59,0.00,,,0.00,VWS V14.01,2013-07-22 03:06:00,
2013-07-21 20:11:00,55.2,41.6,29.81,WSW,249,7.6,7.6,60,0.00,,,0.00,VWS V14.01,2013-07-22 03:11:00,
2013-07-21 20:16:00,55.2,42.0,29.81,SSW,201,6.3,8.1,61,0.00,,,0.00,VWS V14.01,2013-07-22 03:16:00,
2013-07-21 20:21:00,55.2,42.9,29.81,SW,219,5.4,8.1,63,0.00,,,0.00,VWS V14.01,2013-07-22 03:21:00,
2013-07-21 20:26:00,55.2,43.3,29.81,SW,230,6.3,6.3,64,0.00,,,0.00,VWS V14.01,2013-07-22 03:26:00,
2013-07-21 20:31:00,55.2,43.7,29.81,SW,216,8.1,8.1,65,0.00,,,0.00,VWS V14.01,2013-07-22 03:31:00,
2013-07-21 20:36:00,55.2,44.1,29.81,SW,215,5.4,8.3,66,0.00,,,0.00,VWS V14.01,2013-07-22 03:36:00,
2013-07-21 20:41:00,55.2,44.5,29.81,SW,217,5.8,5.8,67,0.00,,,0.00,VWS V14.01,2013-07-22 03:41:00,
2013-07-21 20:46:00,55.2,44.9,29.81,West,263,7.6,7.6,68,0.00,,,0.00,VWS V14.01,2013-07-22 03:46:00,
2013-07-21 20:51:00,55.2,45.2,29.81,SSW,201,5.8,6.3,69,0.00,,,0.00,VWS V14.01,2013-07-22 03:51:00,
2013-07-21 20:56:00,55.2,45.6,29.81,South,173,8.3,8.7,70,0.00,,,0.00,VWS V14.01,2013-07-22 03:56:00,
2013-07-21 21:01:00,55.2,45.6,29.81,SSW,199,4.9,6.3,70,0.00,,,0.00,VWS V14.01,2013-07-22 04:01:00,
2013-07-21 21:06:00,55.4,45.8,29.81,West,278,7.6,8.3,70,0.00,,,0.00,VWS V14.01,2013-07-22 04:06:00,
2013-07-21 21:11:00,55.4,46.2,29.81,SSW,194,5.8,8.3,71,0.00,,,0.00,VWS V14.01,2013-07-22 04:11:00,
2013-07-21 21:16:00,55.2,46.4,29.81,SSW,210,5.4,8.1,72,0.00,,,0.00,VWS V14.01,2013-07-22 04:16:00,
2013-07-21 21:21:00,55.2,46.4,29.81,SSW,201,4.9,8.7,72,0.00,,,0.00,VWS V14.01,2013-07-22 04:21:00,
2013-07-21 21:26:00,55.2,46.7,29.81,South,181,7.6,7.6,73,0.00,,,0.00,VWS V14.01,2013-07-22 04:26:00,
2013-07-21 21:31:00,55.2,46.7,29.81,SW,227,9.6,10.1,73,0.00,,,0.00,VWS V14.01,2013-07-22 04:31:00,
2013-07-21 21:36:00,55.0,46.9,29.81,SW,230,5.8,8.1,74,0.00,,,0.00,VWS V14.01,2013-07-22 04:36:00,
2013-07-21 21:41:00,55.2,47.1,29.81,SSW,210,10.5,10.5,74,0.00,,,0.00,VWS V14.01,2013-07-22 04:41:00,
2013-07-21 21:46:00,55.2,47.5,29.81,WSW,237,4.0,10.1,75,0.00,,,0.00,VWS V14.01,2013-07-22 04:46:00,
2013-07-21 21:51:00,55.2,47.5,29.84,SW,227,6.3,8.3,75,0.00,,,0.00,VWS V14.01,2013-07-22 04:51:00,
2013-07-21 21:56:00,55.2,47.8,29.84,SSW,205,5.8,5.8,76,0.00,,,0.00,VWS V14.01,2013-07-22 04:56:00,
2013-07-21 22:01:00,55.4,48.0,29.84,SSW,208,4.0,8.1,76,0.00,,,0.00,VWS V14.01,2013-07-22 05:01:00,
2013-07-21 22:06:00,55.4,48.0,29.84,SW,215,8.3,8.3,76,0.00,,,0.00,VWS V14.01,2013-07-22 05:06:00,
2013-07-21 22:11:00,55.4,48.3,29.84,SSW,201,6.3,8.1,77,0.00,,,0.00,VWS V14.01,2013-07-22 05:11:00,
2013-07-21 22:16:00,55.4,48.3,29.84,SW,229,6.3,8.3,77,0.00,,,0.00,VWS V14.01,2013-07-22 05:16:00,
2013-07-21 22:21:00,55.4,48.7,29.84,South,185,6.3,6.3,78,0.00,,,0.00,VWS V14.01,2013-07-22 05:21:00,
2013-07-21 22:26:00,55.4,48.7,29.84,SW,226,6.3,8.1,78,0.00,,,0.00,VWS V14.01,2013-07-22 05:26:00,
2013-07-21 22:31:00,55.4,49.0,29.84,SW,215,7.2,9.6,79,0.00,,,0.00,VWS V14.01,2013-07-22 05:31:00,
2013-07-21 22:36:00,55.2,48.8,29.84,SW,219,8.7,8.7,79,0.00,,,0.00,VWS V14.01,2013-07-22 05:36:00,
2013-07-21 22:41:00,55.2,49.2,29.84,SW,217,7.6,11.0,80,0.00,,,0.00,VWS V14.01,2013-07-22 05:41:00,
2013-07-21 22:46:00,55.2,49.2,29.84,SSW,201,5.4,5.8,80,0.00,,,0.00,VWS V14.01,2013-07-22 05:46:00,
2013-07-21 22:51:00,55.2,49.2,29.84,SSW,206,4.0,5.4,80,0.00,,,0.00,VWS V14.01,2013-07-22 05:51:00,
2013-07-21 22:56:00,55.2,49.5,29.84,SSW,205,8.3,8.7,81,0.00,,,0.00,VWS V14.01,2013-07-22 05:56:00,
2013-07-21 23:01:00,55.0,49.3,29.84,WSW,237,4.0,8.1,81,0.00,,,0.00,VWS V14.01,2013-07-22 06:01:00,
2013-07-21 23:06:00,55.0,49.3,29.84,WSW,244,6.7,6.7,81,0.00,,,0.00,VWS V14.01,2013-07-22 06:06:00,
2013-07-21 23:11:00,55.2,49.5,29.84,SW,232,5.8,7.6,81,0.00,,,0.00,VWS V14.01,2013-07-22 06:11:00,
2013-07-21 23:16:00,55.2,49.8,29.84,SSW,197,5.8,8.1,82,0.00,,,0.00,VWS V14.01,2013-07-22 06:16:00,
2013-07-21 23:21:00,55.2,49.8,29.84,SSW,192,4.9,5.8,82,0.00,,,0.00,VWS V14.01,2013-07-22 06:21:00,
2013-07-21 23:26:00,55.2,49.8,29.84,SW,214,6.3,8.7,82,0.00,,,0.00,VWS V14.01,2013-07-22 06:26:00,
2013-07-21 23:31:00,55.2,49.8,29.84,SW,225,7.2,7.2,82,0.00,,,0.00,VWS V14.01,2013-07-22 06:31:00,
2013-07-21 23:36:00,55.2,49.8,29.84,SW,230,4.0,7.6,82,0.00,,,0.00,VWS V14.01,2013-07-22 06:36:00,
2013-07-21 23:41:00,55.2,49.8,29.84,West,265,5.4,7.6,82,0.00,,,0.00,VWS V14.01,2013-07-22 06:41:00,
2013-07-21 23:46:00,55.0,49.7,29.84,SW,220,3.6,8.1,82,0.00,,,0.00,VWS V14.01,2013-07-22 06:46:00,
2013-07-21 23:51:00,55.0,50.0,29.84,WSW,237,4.9,5.8,83,0.00,,,0.00,VWS V14.01,2013-07-22 06:51:00,
2013-07-21 23:56:00,55.0,50.0,29.84,SW,230,3.1,4.0,83,0.00,,,0.00,VWS V14.01,2013-07-22 06:56:00,